TimeEST,TemperatureF,Dew PointF,Humidity,Sea Level PressureIn,VisibilityMPH,Wind Direction,Wind SpeedMPH,Gust SpeedMPH,PrecipitationIn,Events,Conditions,WindDirDegrees,DateUTC
12:53 AM,61.0,55.9,83,30.07,10.0,North,6.9,-,N/A,,Clear,360,2013-02-09 05:53:00
1:53 AM,59.0,55.0,87,30.07,10.0,North,6.9,-,N/A,,Clear,10,2013-02-09 06:53:00
2:53 AM,57.9,55.0,90,30.06,10.0,NNE,5.8,-,N/A,,Clear,20,2013-02-09 07:53:00
3:53 AM,57.0,54.0,89,30.06,9.0,NNE,3.5,-,N/A,,Clear,20,2013-02-09 08:53:00
4:53 AM,55.9,54.0,93,30.06,8.0,North,5.8,-,N/A,,Clear,10,2013-02-09 09:53:00
5:30 AM,55.4,53.6,94,30.08,7.0,NNE,4.6,-,N/A,,Scattered Clouds,20,2013-02-09 10:30:00
5:39 AM,57.2,53.6,88,30.09,8.0,NNE,5.8,-,N/A,,Mostly Cloudy,20,2013-02-09 10:39:00
5:53 AM,57.0,55.0,93,30.08,1.8,NE,8.1,-,N/A,,Overcast,40,2013-02-09 10:53:00
6:07 AM,57.2,55.4,94,30.09,0.8,NE,5.8,-,N/A,,Overcast,50,2013-02-09 11:07:00
6:53 AM,57.9,55.9,93,30.10,1.2,NE,4.6,-,N/A,,Overcast,40,2013-02-09 11:53:00
7:05 AM,57.2,57.2,100,30.11,3.0,NNE,5.8,-,N/A,,Overcast,30,2013-02-09 12:05:00
7:53 AM,59.0,57.0,93,30.13,8.0,North,6.9,-,N/A,,Overcast,10,2013-02-09 12:53:00
8:48 AM,60.8,55.4,82,30.15,10.0,NNE,10.4,-,N/A,,Mostly Cloudy,20,2013-02-09 13:48:00
8:53 AM,60.1,55.0,83,30.15,10.0,NNE,5.8,-,N/A,,Mostly Cloudy,20,2013-02-09 13:53:00
9:53 AM,66.0,55.9,70,30.16,10.0,NE,12.7,-,N/A,,Clear,40,2013-02-09 14:53:00
10:53 AM,71.1,57.9,63,30.16,10.0,ENE,13.8,-,N/A,,Partly Cloudy,70,2013-02-09 15:53:00
11:53 AM,73.9,59.0,59,30.16,10.0,ENE,10.4,-,N/A,,Scattered Clouds,60,2013-02-09 16:53:00
12:53 PM,75.0,59.0,57,30.14,10.0,ENE,12.7,21.9,N/A,,Scattered Clouds,70,2013-02-09 17:53:00
1:53 PM,77.0,57.9,52,30.11,10.0,East,5.8,-,N/A,,Scattered Clouds,90,2013-02-09 18:53:00
2:53 PM,78.1,55.9,46,30.10,10.0,East,8.1,-,N/A,,Clear,90,2013-02-09 19:53:00
3:53 PM,79.0,55.9,45,30.09,10.0,East,6.9,-,N/A,,Scattered Clouds,90,2013-02-09 20:53:00
4:53 PM,79.0,55.9,45,30.09,10.0,East,9.2,-,N/A,,Partly Cloudy,100,2013-02-09 21:53:00
5:53 PM,75.9,55.9,50,30.10,10.0,East,11.5,-,N/A,,Clear,80,2013-02-09 22:53:00
6:53 PM,72.0,55.9,57,30.12,10.0,East,10.4,-,N/A,,Clear,80,2013-02-09 23:53:00
7:53 PM,71.1,57.0,61,30.13,10.0,East,11.5,-,N/A,,Mostly Cloudy,90,2013-02-10 00:53:00
8:53 PM,69.1,57.9,68,30.15,10.0,East,12.7,-,N/A,,Scattered Clouds,80,2013-02-10 01:53:00
9:53 PM,68.0,59.0,73,30.17,10.0,East,6.9,-,N/A,,Mostly Cloudy,80,2013-02-10 02:53:00
10:53 PM,66.9,59.0,76,30.17,10.0,East,8.1,-,N/A,,Scattered Clouds,80,2013-02-10 03:53:00
11:53 PM,64.9,59.0,81,30.17,10.0,ENE,5.8,-,N/A,,Scattered Clouds,70,2013-02-10 04:53:00